Regional Weather Roundup
Issued by NWS Burlington, VT

Home | Current Version | Previous Version | Text Only | Print | Product List | Glossary On
Versions: 1 2 3 4 5 6 7 8 9 10 11 12 13 14 15 16 17 18 19 20 21 22 23 24 25 26 27 28 29 30 31 32 33 34 35 36 37 38 39 40 41 42 43 44 45 46 47 48 49 50
000
ASUS41 KBTV 012110
RWRBTV
VERMONT REGIONAL WEATHER ROUNDUP
NATIONAL WEATHER SERVICE BURLINGTON VT
500 PM EDT MON SEP 01 2014

NOTE: "FAIR" INDICATES FEW OR NO CLOUDS BELOW 12,000 FEET WITH NO
SIGNIFICANT WEATHER AND/OR OBSTRUCTIONS TO VISIBILITY.

* THESE REPORTS ARE NOT UNDER NWS QUALITY CONTROL AND/OR DO NOT
  REPORT WEATHER SUCH AS PRECIPITATION AND FOG.

VTZ001>019-012200-
_____VERMONT_____


CITY           SKY/WX    TMP DP  RH WIND       PRES   REMARKS
BURLINGTON     PTCLDY    86  61  42 SW5       29.89F
MONTPELIER     PTCLDY    81  60  48 NW3       29.97F
MORRISVILLE    PTCLDY    82  61  48 S6        29.93F
ST. JOHNSBURY*   N/A     84  60  44 MISG      29.90F
MIDDLEBURY*    FAIR      84  64  49 S7        29.90F
RUTLAND*       MOCLDY    81  64  57 S3        29.93F
SPRINGFIELD    CLEAR     84  60  44 VRB5      29.93F
HIGHGATE*      FAIR      81  67  62 CALM      29.89F
NEWPORT*       FAIR      79  64  60 SW5       29.93F
BENNINGTON     CLEAR     84  65  52 N3        29.95F

_____LAKE CHAMPLAIN_____


CITY           SKY/WX    TMP DP  RH WIND       PRES   REMARKS
COLCHESTER RF*   N/A     82  63  51 S3          N/A
DIAMOND ISL*     N/A     82  66  57 N2          N/A

$$

NYZ007-026>031-035-052-083-012200-
_____NORTHERN NEW YORK_____


CITY           SKY/WX    TMP DP  RH WIND       PRES   REMARKS
PLATTSBURGH    MOCLDY    81  65  58 SE6       29.88F
SARANAC LAKE   PTCLDY    79  60  52 SW8       29.94F
MASSENA        PTCLDY    81  67  62 SW6       29.89F
OGDENSBURG*    CLEAR     82  70  65 SW7       29.88F
POTSDAM*       CLEAR     81  70  69 SW7       29.89F
WATERTOWN      CLEAR     82  68  62 SW3       29.87F
FT DRUM        CLEAR     82  65  55 W6        29.89F
ALBANY         PTCLDY    86  65  49 SE3       29.91F
GLENS FALLS    CLEAR     83  67  58 S7        29.90F

$$
NHZ002-005-011-012200-
_____NEW HAMPSHIRE_____


CITY           SKY/WX    TMP DP  RH WIND       PRES   REMARKS
LEBANON        CLEAR     85  59  41 NW6       29.92F
KEENE          CLEAR     84  59  42 NW3       29.94S
PLYMOUTH       FAIR      84  67  58 W5        29.91F
WHITEFIELD     PTCLDY    82  63  52 W7        29.94S

$$

_____REGIONAL QUEBEC LOCATIONS_____


CITY           SKY/WX    TMP DP  RH WIND       PRES   REMARKS
MONTREAL       PTCLDY    79  64  61 SW6       29.88F
QUEBEC CITY    MOCLDY    66  59  77 E10G17    29.93F
SHERBROOKE     PTCLDY    79  64  61 W5        29.92F

_____REGIONAL ONTARIO LOCATIONS_____


CITY           SKY/WX    TMP DP  RH WIND       PRES   REMARKS
OTTAWA         PTCLDY    79  66  65 S7        29.87F

______KEY______
VSB  - VISIBILITY IN MILES
WCI  - WIND CHILL INDEX
HX   - HEAT INDEX
$$



USA.gov is the U.S. government's official web portal to all federal, state and local government web resources and services.